Showing default

HAWK-11A, 62382

Orbit data source: Space-Track

HAWK-11A, 62382 is a payload satellite owned by HawkEye 360 (US) in LEO that was launched on Sat, 21 Dec 2024 UTC via an FALCON 9 launch vehicle from the Air Force Western Test Range (AFWTR). Payload-class satellites include a variety of spacecraft equipped with specific instruments for various scientific and technological missions. These include communications satellites like Starlink; space stations such as the ISS; scientific satellites like the Hubble; Earth observation satellites from companies like Planet Labs, Umbra, and HawkEye 360; GPS; miniature CubeSats for education and research; and military/defense satellites.

Loading next visibility...
Identifier
62382, 2024-247F
Orbit
LEO
Last TLE update
16 hours ago
Origin
Manufacturer
UTIAS-SFL
Mission
Operational Commercial Sigint
Bus & Motor
HAWK2G, Unknown motor
Mass
31 kg wet, 30 kg dry
Launch date (UTC)
2024-12-21 (5 months ago)
Launch vehicle
FALCON 9
Launch site
Air Force Western Test Range (AFWTR)
Object type
Payload
Rocket body
Debris
Shape & HBR
Box + 2 Pan, 1 m
Radar Cross Section
0.240 m², Medium (>0.1 m² and < 1m²)

Expand to show TLE details & history

TLE from 16 hours ago
0 HAWK-11A
1 62382U 24247F   25128.93587920  .00010030  00000-0  42987-3 0  9998
2 62382  44.9852 332.7209 0003484 265.5503  94.4980 15.23015059 21228
Epoch: 2025-05-08T22:27Z
Definitive object data (Epoch: 2025-05-08T22:27:39.962Z)
Latitude
-0.00004°
Longitude
128.80512°
Altitude
496.938 km
Speed
7.618 km/s
True Right ascension
22h 10m 53s
True Declination
0° 00' 00"
Sunlit
Object was in daylight at TLE epoch
Visualization TLE readout
Latitude
38.5009°
Longitude
177.51072°
Altitude
501.202 km
Speed
7.618 km/s
Apparent Right ascension
05h 33m 32s
Apparent Declination
2° 56' 35"
Sunlit
Object is in daylight
Visualization observer readout
Local Sidereal Time
22:38:24
Azimuth
78.798° E
Elevation
-8.603°
Doppler factor
1
Orbital elements
Apogee altitude
500.757 km
Perigee altitude
495.965 km
Semi-major axis
6,876.498 km
Eccentricity
0.0003484
Inclination
44.9852°
RAAN
332.7209°
Arg. of periapsis
265.5503°
True anomaly
94.5378°
Mean anomaly
94.498°
Eccentric anomaly
94.5179°
Mean motion
3.80621 °/min
BSTAR
0.00042987
Orbital period
94.58 mins
Loading maneuver chart data...
Loading SW <> Apogee altitude chart data...
Loading historical data...
Loading historical data...
Loading historical data...
Loading historical data...
Loading historical data...
Loading historical data...
Loading historical data...

HAWK-11A Visibility forecast

Observer location: undefined°, undefined°

Span
Click to sort rows by Start time (UTC) header in descending order
Start Az.
Max El. time (UTC)
Max El. Az.
Max El.
End time (UTC)
End Az.
5 mins2025-05-09 15:57:15.152Z187.951° SSW2025-05-09 15:59:15.152Z153.252° SSE19.957°2025-05-09 16:02:15.152Z95.191° ESE
6 mins2025-05-09 17:36:15.152Z251.663° W2025-05-09 17:38:15.152Z280.433° WNW43.8°2025-05-09 17:42:15.152Z65.348° ENE
5 mins2025-05-09 19:16:15.152Z304.462° NW2025-05-09 19:18:15.152Z8.659° NNE31.366°2025-05-09 19:21:15.152Z64.067° ENE
5 mins2025-05-09 20:55:15.152Z306.368° NW2025-05-09 20:57:15.152Z0.492° NNE37.299°2025-05-09 21:00:15.152Z86.697° E
5 mins2025-05-09 22:34:15.152Z276.698° WNW2025-05-09 22:36:15.152Z228.789° WSW35.023°2025-05-09 22:39:15.152Z143.443° SSE
|